STARLINK-4615, 53620

Orbit data source: Space-Track

STARLINK-4615, 53620 is a payload satellite owned by SpaceX/Seattle (US) in LEO that was launched on Sun, 28 Aug 2022 UTC via an FALCON 9 launch vehicle from the Air Force Eastern Test Range (AFETR). Payload-class satellites include a variety of spacecraft equipped with specific instruments for various scientific and technological missions. These include communications satellites like Starlink; space stations such as the ISS; scientific satellites like the Hubble; Earth observation satellites from companies like Planet Labs, Umbra, and HawkEye 360; GPS; miniature CubeSats for education and research; and military/defense satellites.

Loading next visibility...
Identifier
53620, 2022-104AJ
Orbit
LEO
Country
Flag of USUS
Related business
Manufacturer
SpaceX/Seattle
Mission
Operational Commercial Communications
Bus & Motor
STARLINK, Unknown motor
Mass
300 kg wet, ~290 kg dry
Launch date (UTC)
2022-08-28 (3 years ago)
Launch vehicle
FALCON 9
Launch site
Air Force Eastern Test Range (AFETR)
Object type
Payload
Rocket body
Debris
Shape & HBR
Box + 1 Pan, 10.1 m
Radar Cross Section
13.562 m², Large (>1 m²)

Expand to show TLE details & history
Last TLE update: 23 hours ago

TLE from 23 hours ago
0 STARLINK-4615
1 53620U 22104AJ  26036.34029184  .00000508  00000-0  50031-4 0  9999
2 53620  53.2188  19.1794 0001520  84.4954 275.6212 15.08842378190863
Epoch: 2026-02-05T08:10Z
TLE epoch observation values (Epoch: 2026-02-05T08:10:01.214Z)
Latitude
-0.00001°
Longitude
121.18041°
Altitude
540.531 km
Speed
7.593 km/s
True Right ascension
01h 16m 43s
True Declination
0° 00' 00"
Sunlit
Object was in daylight at epoch
Visualization orbit readout
Latitude
Unknown
Longitude
Unknown
Altitude
Unknown
Speed
Unknown
Apparent Right ascension
Unknown
Apparent Declination
Unknown
Sunlit
N/A
Visualization observer readout
Local Sidereal Time
09:06:27
Azimuth
Unknown
Elevation
Unknown
Doppler factor
Unknown
Orbital elements
Apogee altitude
541.032 km
Perigee altitude
538.929 km
Semi-major axis
6,918.118 km
Eccentricity
0.00015
Inclination
53.2188°
RAAN
19.1794°
Arg. of periapsis
84.4954°
True anomaly
275.60387°
Mean anomaly
275.6212°
Eccentric anomaly
275.61253°
Mean motion
3.77191 °/min
Orbital period
95.44 mins
BSTAR
0.000050031
Loading maneuver chart data...
Computing Atmospheric mass density...
Loading historical data...
Loading historical data...
Loading historical data...
Loading historical data...
Loading historical data...
Loading historical data...
Loading historical data...

Documentation

Showing up to 5 results
|